Time,TemperatureF,DewpointF,PressureIn,WindDirection,WindDirectionDegrees,WindSpeedMPH,WindSpeedGustMPH,Humidity,HourlyPrecipIn,Conditions,Clouds,dailyrainin,SoftwareType,DateUTC
2013-01-12 00:02:00,70.9,66.7,30.15,SE,128,7.0,7.0,87,0.00,,,0.00,meteohub,2013-01-12 05:02:00,
2013-01-12 00:07:00,70.9,66.7,30.15,SE,133,2.0,7.0,87,0.00,,,0.00,meteohub,2013-01-12 05:07:00,
2013-01-12 00:12:00,70.9,66.7,30.15,ESE,113,2.0,7.0,87,0.00,,,0.00,meteohub,2013-01-12 05:12:00,
2013-01-12 00:17:00,70.5,66.7,30.15,SE,130,4.0,8.0,88,0.00,,,0.00,meteohub,2013-01-12 05:17:00,
2013-01-12 00:22:00,70.5,66.7,30.14,SE,137,2.0,11.0,88,0.00,,,0.00,meteohub,2013-01-12 05:22:00,
2013-01-12 00:27:00,70.3,66.6,30.14,SE,138,4.0,11.0,88,0.00,,,0.00,meteohub,2013-01-12 05:27:00,
2013-01-12 00:32:00,70.2,66.4,30.14,ESE,123,0.0,11.0,88,0.00,,,0.00,meteohub,2013-01-12 05:32:00,
2013-01-12 00:37:00,70.0,66.6,30.14,SSE,154,2.0,7.0,89,0.00,,,0.00,meteohub,2013-01-12 05:37:00,
2013-01-12 00:42:00,69.6,66.2,30.14,SSE,147,5.0,7.0,89,0.00,,,0.00,meteohub,2013-01-12 05:42:00,
2013-01-12 00:47:00,69.6,66.6,30.14,SE,137,2.0,7.0,90,0.00,,,0.00,meteohub,2013-01-12 05:47:00,
2013-01-12 00:52:00,69.4,66.4,30.14,SE,124,1.0,7.0,90,0.00,,,0.00,meteohub,2013-01-12 05:52:00,
2013-01-12 00:57:00,69.3,66.6,30.14,South,169,0.0,7.0,91,0.00,,,0.00,meteohub,2013-01-12 05:57:00,
2013-01-12 01:02:00,69.3,66.6,30.14,SE,144,4.0,7.0,91,0.00,,,0.00,meteohub,2013-01-12 06:02:00,
2013-01-12 01:07:00,69.1,66.4,30.14,SE,145,3.0,7.0,91,0.00,,,0.00,meteohub,2013-01-12 06:07:00,
2013-01-12 01:12:00,69.1,66.4,30.13,SE,146,2.0,7.0,91,0.00,,,0.00,meteohub,2013-01-12 06:12:00,
2013-01-12 01:17:00,68.9,66.2,30.13,SSE,149,4.0,7.0,91,0.00,,,0.00,meteohub,2013-01-12 06:17:00,
2013-01-12 01:22:00,68.9,66.2,30.13,SSE,151,1.0,8.0,91,0.00,,,0.00,meteohub,2013-01-12 06:22:00,
2013-01-12 01:27:00,68.7,66.0,30.13,ESE,102,0.0,9.0,91,0.00,,,0.00,meteohub,2013-01-12 06:27:00,
2013-01-12 01:32:00,68.7,66.0,30.13,SE,136,3.0,9.0,91,0.00,,,0.00,meteohub,2013-01-12 06:32:00,
2013-01-12 01:37:00,68.7,66.0,30.13,SE,134,3.0,9.0,91,0.00,,,0.00,meteohub,2013-01-12 06:37:00,
2013-01-12 01:47:00,68.7,66.0,30.13,SE,145,3.0,7.0,91,0.00,,,0.00,meteohub,2013-01-12 06:47:00,
2013-01-12 01:52:00,68.5,66.2,30.13,SSE,155,2.0,5.0,92,0.00,,,0.00,meteohub,2013-01-12 06:52:00,
2013-01-12 01:57:00,68.5,66.2,30.13,SE,135,5.0,5.0,92,0.00,,,0.00,meteohub,2013-01-12 06:57:00,
2013-01-12 02:02:00,68.5,66.2,30.13,SSE,150,3.0,6.0,92,0.00,,,0.00,meteohub,2013-01-12 07:02:00,
2013-01-12 02:07:00,68.4,66.0,30.13,SE,130,2.0,6.0,92,0.00,,,0.00,meteohub,2013-01-12 07:07:00,
2013-01-12 02:12:00,68.4,66.0,30.13,SE,145,2.0,6.0,92,0.00,,,0.00,meteohub,2013-01-12 07:12:00,
2013-01-12 02:17:00,68.4,66.0,30.13,SE,136,2.0,6.0,92,0.00,,,0.00,meteohub,2013-01-12 07:17:00,
2013-01-12 02:22:00,68.2,65.8,30.12,ESE,123,1.0,6.0,92,0.00,,,0.00,meteohub,2013-01-12 07:22:00,
2013-01-12 02:27:00,68.2,66.0,30.12,SE,132,2.0,6.0,93,0.00,,,0.00,meteohub,2013-01-12 07:27:00,
2013-01-12 02:32:00,68.2,66.0,30.12,SE,145,3.0,6.0,93,0.00,,,0.00,meteohub,2013-01-12 07:32:00,
2013-01-12 02:37:00,68.2,66.0,30.12,SE,144,3.0,6.0,93,0.00,,,0.00,meteohub,2013-01-12 07:37:00,
2013-01-12 02:42:00,68.0,65.8,30.12,SE,130,2.0,5.0,93,0.00,,,0.00,meteohub,2013-01-12 07:42:00,
2013-01-12 02:47:00,68.0,65.8,30.12,ESE,113,0.0,5.0,93,0.00,,,0.00,meteohub,2013-01-12 07:47:00,
2013-01-12 02:52:00,67.8,65.7,30.12,ESE,121,2.0,5.0,93,0.00,,,0.00,meteohub,2013-01-12 07:52:00,
2013-01-12 02:57:00,67.8,65.7,30.12,ESE,121,0.0,5.0,93,0.00,,,0.00,meteohub,2013-01-12 07:57:00,
2013-01-12 03:02:00,67.8,65.7,30.12,ESE,113,1.0,5.0,93,0.00,,,0.00,meteohub,2013-01-12 08:02:00,
2013-01-12 03:07:00,67.8,65.7,30.12,ESE,113,0.0,3.0,93,0.00,,,0.00,meteohub,2013-01-12 08:07:00,
2013-01-12 03:12:00,67.6,65.5,30.12,ESE,113,0.0,3.0,93,0.00,,,0.00,meteohub,2013-01-12 08:12:00,
2013-01-12 03:17:00,67.6,65.5,30.12,ESE,119,1.0,3.0,93,0.00,,,0.00,meteohub,2013-01-12 08:17:00,
2013-01-12 03:22:00,67.6,65.5,30.12,ESE,106,1.0,4.0,93,0.00,,,0.00,meteohub,2013-01-12 08:22:00,
2013-01-12 03:27:00,67.6,65.8,30.12,ESE,106,1.0,4.0,94,0.00,,,0.00,meteohub,2013-01-12 08:27:00,
2013-01-12 03:32:00,67.5,65.7,30.12,ESE,117,3.0,3.0,94,0.00,,,0.00,meteohub,2013-01-12 08:32:00,
2013-01-12 03:37:00,67.5,65.7,30.12,SE,130,2.0,5.0,94,0.00,,,0.00,meteohub,2013-01-12 08:37:00,
2013-01-12 03:42:00,67.5,65.7,30.12,SE,137,2.0,5.0,94,0.00,,,0.00,meteohub,2013-01-12 08:42:00,
2013-01-12 03:47:00,67.5,65.7,30.12,SE,137,0.0,5.0,94,0.00,,,0.00,meteohub,2013-01-12 08:47:00,
2013-01-12 03:52:00,67.5,65.7,30.12,SE,137,0.0,4.0,94,0.00,,,0.00,meteohub,2013-01-12 08:52:00,
2013-01-12 03:57:00,67.3,65.5,30.11,SE,137,0.0,4.0,94,0.00,,,0.00,meteohub,2013-01-12 08:57:00,
2013-01-12 04:02:00,67.3,65.5,30.11,SE,137,2.0,4.0,94,0.00,,,0.00,meteohub,2013-01-12 09:02:00,
2013-01-12 04:07:00,67.3,65.5,30.11,SE,128,0.0,3.0,94,0.00,,,0.00,meteohub,2013-01-12 09:07:00,
2013-01-12 04:12:00,67.1,65.3,30.11,SE,128,2.0,3.0,94,0.00,,,0.00,meteohub,2013-01-12 09:12:00,
2013-01-12 04:17:00,67.1,65.3,30.11,SE,128,2.0,3.0,94,0.00,,,0.00,meteohub,2013-01-12 09:17:00,
2013-01-12 04:22:00,67.1,65.3,30.11,SE,128,0.0,3.0,94,0.00,,,0.00,meteohub,2013-01-12 09:22:00,
2013-01-12 04:27:00,66.9,65.1,30.11,SE,128,0.0,3.0,94,0.00,,,0.00,meteohub,2013-01-12 09:27:00,
2013-01-12 04:32:00,66.9,65.1,30.11,SE,128,0.0,3.0,94,0.00,,,0.00,meteohub,2013-01-12 09:32:00,
2013-01-12 04:37:00,66.9,65.1,30.11,SE,128,0.0,2.0,94,0.00,,,0.00,meteohub,2013-01-12 09:37:00,
2013-01-12 04:42:00,66.7,64.9,30.11,SE,128,1.0,2.0,94,0.00,,,0.00,meteohub,2013-01-12 09:42:00,
2013-01-12 04:47:00,66.6,64.8,30.11,SE,128,1.0,2.0,94,0.00,,,0.00,meteohub,2013-01-12 09:47:00,
2013-01-12 04:57:00,66.0,64.6,30.11,SE,128,0.0,2.0,95,0.00,,,0.00,meteohub,2013-01-12 09:57:00,
2013-01-12 05:02:00,65.8,64.4,30.11,SE,128,0.0,2.0,95,0.00,,,0.00,meteohub,2013-01-12 10:02:00,
2013-01-12 05:07:00,65.8,64.4,30.11,SE,128,1.0,2.0,95,0.00,,,0.00,meteohub,2013-01-12 10:07:00,
2013-01-12 05:12:00,65.8,64.4,30.11,SE,128,1.0,2.0,95,0.00,,,0.00,meteohub,2013-01-12 10:12:00,
2013-01-12 05:17:00,65.7,64.2,30.11,SE,128,1.0,2.0,95,0.00,,,0.00,meteohub,2013-01-12 10:17:00,
2013-01-12 05:22:00,65.7,64.2,30.11,SE,128,1.0,3.0,95,0.00,,,0.00,meteohub,2013-01-12 10:22:00,
2013-01-12 05:27:00,65.5,64.0,30.11,SE,128,0.0,3.0,95,0.00,,,0.00,meteohub,2013-01-12 10:27:00,
2013-01-12 05:32:00,65.5,64.0,30.11,SE,128,1.0,2.0,95,0.00,,,0.00,meteohub,2013-01-12 10:32:00,
2013-01-12 05:37:00,65.5,64.0,30.11,SE,128,0.0,2.0,95,0.00,,,0.00,meteohub,2013-01-12 10:37:00,
2013-01-12 05:42:00,65.3,63.9,30.11,SE,128,0.0,2.0,95,0.00,,,0.00,meteohub,2013-01-12 10:42:00,
2013-01-12 05:47:00,65.1,64.0,30.11,SE,128,0.0,2.0,96,0.00,,,0.00,meteohub,2013-01-12 10:47:00,
2013-01-12 05:52:00,65.1,64.0,30.11,SE,128,0.0,2.0,96,0.00,,,0.00,meteohub,2013-01-12 10:52:00,
2013-01-12 05:57:00,64.9,63.9,30.11,SE,128,1.0,2.0,96,0.00,,,0.00,meteohub,2013-01-12 10:57:00,
2013-01-12 06:02:00,64.9,63.9,30.11,SE,128,1.0,3.0,96,0.00,,,0.00,meteohub,2013-01-12 11:02:00,
2013-01-12 06:07:00,64.9,63.9,30.11,SE,128,1.0,3.0,96,0.00,,,0.00,meteohub,2013-01-12 11:07:00,
2013-01-12 06:12:00,64.9,63.9,30.12,SE,128,0.0,3.0,96,0.00,,,0.00,meteohub,2013-01-12 11:12:00,
2013-01-12 06:17:00,64.8,63.7,30.12,SE,128,0.0,2.0,96,0.00,,,0.00,meteohub,2013-01-12 11:17:00,
2013-01-12 06:22:00,64.8,63.7,30.12,SE,128,0.0,2.0,96,0.00,,,0.00,meteohub,2013-01-12 11:22:00,
2013-01-12 06:27:00,64.8,63.7,30.12,SE,128,1.0,1.0,96,0.00,,,0.00,meteohub,2013-01-12 11:27:00,
2013-01-12 06:32:00,64.8,63.7,30.12,SE,128,0.0,2.0,96,0.00,,,0.00,meteohub,2013-01-12 11:32:00,
2013-01-12 06:37:00,64.8,63.7,30.12,SE,128,0.0,2.0,96,0.00,,,0.00,meteohub,2013-01-12 11:37:00,
2013-01-12 06:42:00,64.8,63.7,30.12,SE,128,0.0,2.0,96,0.00,,,0.00,meteohub,2013-01-12 11:42:00,
2013-01-12 06:47:00,64.8,63.7,30.12,SE,128,0.0,1.0,96,0.00,,,0.00,meteohub,2013-01-12 11:47:00,
2013-01-12 06:52:00,64.8,63.7,30.12,SE,128,0.0,1.0,96,0.00,,,0.00,meteohub,2013-01-12 11:52:00,
2013-01-12 06:57:00,64.8,63.7,30.12,SE,128,1.0,1.0,96,0.00,,,0.00,meteohub,2013-01-12 11:57:00,
2013-01-12 07:02:00,64.6,63.5,30.12,SE,124,0.0,3.0,96,0.00,,,0.00,meteohub,2013-01-12 12:02:00,
2013-01-12 07:07:00,64.6,63.5,30.13,SE,124,0.0,3.0,96,0.00,,,0.00,meteohub,2013-01-12 12:07:00,
2013-01-12 07:12:00,64.4,63.3,30.13,SE,124,0.0,3.0,96,0.00,,,0.00,meteohub,2013-01-12 12:12:00,
2013-01-12 07:17:00,64.4,63.3,30.13,SE,124,1.0,2.0,96,0.00,,,0.00,meteohub,2013-01-12 12:17:00,
2013-01-12 07:22:00,64.2,63.1,30.13,SE,124,0.0,2.0,96,0.00,,,0.00,meteohub,2013-01-12 12:22:00,
2013-01-12 07:27:00,64.2,63.1,30.13,ESE,123,0.0,3.0,96,0.00,,,0.00,meteohub,2013-01-12 12:27:00,
2013-01-12 07:32:00,64.2,63.1,30.13,ESE,121,3.0,3.0,96,0.00,,,0.00,meteohub,2013-01-12 12:32:00,
2013-01-12 07:37:00,64.4,63.5,30.13,ESE,121,2.0,3.0,97,0.00,,,0.00,meteohub,2013-01-12 12:37:00,
2013-01-12 07:42:00,64.6,63.7,30.13,ESE,120,1.0,3.0,97,0.00,,,0.00,meteohub,2013-01-12 12:42:00,
2013-01-12 07:47:00,64.6,63.7,30.13,ESE,111,2.0,3.0,97,0.00,,,0.00,meteohub,2013-01-12 12:47:00,
2013-01-12 07:52:00,64.8,63.9,30.13,ESE,109,1.0,3.0,97,0.00,,,0.00,meteohub,2013-01-12 12:52:00,
2013-01-12 07:57:00,65.1,64.2,30.13,ESE,105,0.0,4.0,97,0.00,,,0.00,meteohub,2013-01-12 12:57:00,
2013-01-12 08:02:00,65.3,64.4,30.13,ESE,103,0.0,4.0,97,0.00,,,0.00,meteohub,2013-01-12 13:02:00,
2013-01-12 08:07:00,65.5,64.6,30.14,ESE,102,2.0,4.0,97,0.00,,,0.00,meteohub,2013-01-12 13:07:00,
2013-01-12 08:12:00,65.7,64.4,30.14,East,91,1.0,4.0,96,0.00,,,0.00,meteohub,2013-01-12 13:12:00,
2013-01-12 08:17:00,65.8,64.6,30.14,ESE,102,2.0,5.0,96,0.00,,,0.00,meteohub,2013-01-12 13:17:00,
2013-01-12 08:22:00,66.0,64.8,30.14,East,92,2.0,7.0,96,0.00,,,0.00,meteohub,2013-01-12 13:22:00,
2013-01-12 08:27:00,66.2,64.9,30.14,East,90,1.0,7.0,96,0.00,,,0.00,meteohub,2013-01-12 13:27:00,
2013-01-12 08:32:00,66.4,64.9,30.14,East,84,5.0,7.0,95,0.00,,,0.00,meteohub,2013-01-12 13:32:00,
2013-01-12 08:37:00,66.6,65.1,30.14,East,88,1.0,7.0,95,0.00,,,0.00,meteohub,2013-01-12 13:37:00,
2013-01-12 08:42:00,66.9,65.5,30.14,East,94,3.0,7.0,95,0.00,,,0.00,meteohub,2013-01-12 13:42:00,
2013-01-12 08:47:00,67.3,65.5,30.14,East,89,2.0,7.0,94,0.00,,,0.00,meteohub,2013-01-12 13:47:00,
2013-01-12 08:52:00,67.5,65.7,30.14,East,90,2.0,6.0,94,0.00,,,0.00,meteohub,2013-01-12 13:52:00,
2013-01-12 08:57:00,67.8,65.7,30.14,ESE,105,5.0,7.0,93,0.00,,,0.00,meteohub,2013-01-12 13:57:00,
2013-01-12 09:02:00,68.2,66.0,30.14,East,83,3.0,8.0,93,0.00,,,0.00,meteohub,2013-01-12 14:02:00,
2013-01-12 09:07:00,68.4,66.0,30.14,East,100,5.0,8.0,92,0.00,,,0.00,meteohub,2013-01-12 14:07:00,
2013-01-12 09:12:00,68.9,66.2,30.14,ENE,77,4.0,8.0,91,0.00,,,0.00,meteohub,2013-01-12 14:12:00,
2013-01-12 09:17:00,69.3,66.2,30.14,East,97,0.0,8.0,90,0.00,,,0.00,meteohub,2013-01-12 14:17:00,
2013-01-12 09:22:00,69.6,66.6,30.14,ESE,107,2.0,8.0,90,0.00,,,0.00,meteohub,2013-01-12 14:22:00,
2013-01-12 09:27:00,70.2,66.7,30.15,East,94,3.0,8.0,89,0.00,,,0.00,meteohub,2013-01-12 14:27:00,
2013-01-12 09:32:00,70.7,66.9,30.15,ESE,102,2.0,7.0,88,0.00,,,0.00,meteohub,2013-01-12 14:32:00,
2013-01-12 09:37:00,71.2,67.1,30.15,ESE,107,3.0,7.0,87,0.00,,,0.00,meteohub,2013-01-12 14:37:00,
2013-01-12 09:42:00,71.8,67.3,30.15,ESE,117,4.0,8.0,86,0.00,,,0.00,meteohub,2013-01-12 14:42:00,
2013-01-12 09:47:00,72.0,66.9,30.14,East,98,5.0,8.0,84,0.00,,,0.00,meteohub,2013-01-12 14:47:00,
2013-01-12 09:52:00,72.3,67.3,30.14,SE,134,5.0,8.0,84,0.00,,,0.00,meteohub,2013-01-12 14:52:00,
2013-01-12 09:57:00,72.7,67.3,30.14,East,92,1.0,8.0,83,0.00,,,0.00,meteohub,2013-01-12 14:57:00,
2013-01-12 10:02:00,73.0,67.6,30.14,SE,143,4.0,9.0,83,0.00,,,0.00,meteohub,2013-01-12 15:02:00,
2013-01-12 10:07:00,73.4,67.6,30.14,ESE,121,1.0,9.0,82,0.00,,,0.00,meteohub,2013-01-12 15:07:00,
2013-01-12 10:12:00,73.8,67.6,30.14,SE,145,8.0,10.0,81,0.00,,,0.00,meteohub,2013-01-12 15:12:00,
2013-01-12 10:17:00,73.9,67.5,30.14,SE,133,6.0,10.0,80,0.00,,,0.00,meteohub,2013-01-12 15:17:00,
2013-01-12 10:22:00,74.1,67.1,30.14,SE,143,2.0,12.0,79,0.00,,,0.00,meteohub,2013-01-12 15:22:00,
2013-01-12 10:27:00,74.5,67.5,30.14,SSE,157,9.0,12.0,79,0.00,,,0.00,meteohub,2013-01-12 15:27:00,
2013-01-12 10:32:00,74.3,66.9,30.14,South,186,6.0,12.0,78,0.00,,,0.00,meteohub,2013-01-12 15:32:00,
2013-01-12 10:37:00,73.9,66.6,30.14,SE,128,7.0,11.0,78,0.00,,,0.00,meteohub,2013-01-12 15:37:00,
2013-01-12 10:42:00,73.9,67.1,30.14,SSE,155,10.0,12.0,79,0.00,,,0.00,meteohub,2013-01-12 15:42:00,
2013-01-12 10:47:00,74.3,66.9,30.13,SE,124,9.0,12.0,78,0.00,,,0.00,meteohub,2013-01-12 15:47:00,
2013-01-12 10:52:00,74.3,66.9,30.13,SE,133,7.0,13.0,78,0.00,,,0.00,meteohub,2013-01-12 15:52:00,
2013-01-12 11:02:00,75.0,67.6,30.13,ESE,109,3.0,15.0,78,0.00,,,0.00,meteohub,2013-01-12 16:02:00,
2013-01-12 11:07:00,75.4,67.6,30.13,SSE,155,5.0,13.0,77,0.00,,,0.00,meteohub,2013-01-12 16:07:00,
2013-01-12 11:12:00,75.6,68.2,30.12,South,188,7.0,12.0,78,0.00,,,0.00,meteohub,2013-01-12 16:12:00,
2013-01-12 11:17:00,75.7,68.0,30.12,SSE,158,1.0,11.0,77,0.00,,,0.00,meteohub,2013-01-12 16:17:00,
2013-01-12 11:22:00,75.9,67.8,30.12,SE,140,7.0,10.0,76,0.00,,,0.00,meteohub,2013-01-12 16:22:00,
2013-01-12 11:27:00,75.7,68.0,30.12,SE,136,5.0,13.0,77,0.00,,,0.00,meteohub,2013-01-12 16:27:00,
2013-01-12 11:32:00,75.7,68.0,30.11,ESE,102,7.0,13.0,77,0.00,,,0.00,meteohub,2013-01-12 16:32:00,
2013-01-12 11:37:00,76.3,68.2,30.11,SE,125,1.0,13.0,76,0.00,,,0.00,meteohub,2013-01-12 16:37:00,
2013-01-12 11:42:00,76.3,68.2,30.11,East,86,2.0,12.0,76,0.00,,,0.00,meteohub,2013-01-12 16:42:00,
2013-01-12 11:47:00,76.5,68.4,30.11,SSE,161,7.0,13.0,76,0.00,,,0.00,meteohub,2013-01-12 16:47:00,
2013-01-12 11:52:00,76.6,68.2,30.10,SE,144,3.0,13.0,75,0.00,,,0.00,meteohub,2013-01-12 16:52:00,
2013-01-12 11:57:00,77.2,69.1,30.10,South,186,2.0,13.0,76,0.00,,,0.00,meteohub,2013-01-12 16:57:00,
2013-01-12 12:02:00,77.2,68.2,30.10,ESE,120,4.0,13.0,74,0.00,,,0.00,meteohub,2013-01-12 17:02:00,
2013-01-12 12:07:00,77.4,68.9,30.10,South,178,6.0,13.0,75,0.00,,,0.00,meteohub,2013-01-12 17:07:00,
2013-01-12 12:12:00,77.7,69.1,30.09,SE,136,1.0,14.0,75,0.00,,,0.00,meteohub,2013-01-12 17:12:00,
2013-01-12 12:17:00,78.1,68.7,30.09,SSE,150,6.0,14.0,73,0.00,,,0.00,meteohub,2013-01-12 17:17:00,
2013-01-12 12:22:00,77.9,68.5,30.09,SE,146,3.0,14.0,73,0.00,,,0.00,meteohub,2013-01-12 17:22:00,
2013-01-12 12:27:00,77.9,68.5,30.09,East,87,7.0,14.0,73,0.00,,,0.00,meteohub,2013-01-12 17:27:00,
2013-01-12 12:32:00,78.3,68.5,30.09,SE,131,6.0,14.0,72,0.00,,,0.00,meteohub,2013-01-12 17:32:00,
2013-01-12 12:37:00,78.6,68.9,30.09,SE,128,8.0,14.0,72,0.00,,,0.00,meteohub,2013-01-12 17:37:00,
2013-01-12 12:42:00,78.4,68.7,30.08,East,96,7.0,13.0,72,0.00,,,0.00,meteohub,2013-01-12 17:42:00,
2013-01-12 12:47:00,78.6,68.4,30.08,SE,140,8.0,15.0,71,0.00,,,0.00,meteohub,2013-01-12 17:47:00,
2013-01-12 12:52:00,78.6,68.4,30.08,ESE,109,2.0,15.0,71,0.00,,,0.00,meteohub,2013-01-12 17:52:00,
2013-01-12 12:57:00,78.8,68.5,30.07,SE,142,4.0,15.0,71,0.00,,,0.00,meteohub,2013-01-12 17:57:00,
2013-01-12 13:02:00,79.0,68.4,30.07,SE,138,9.0,15.0,70,0.00,,,0.00,meteohub,2013-01-12 18:02:00,
2013-01-12 13:07:00,79.0,68.0,30.07,SSE,155,7.0,13.0,69,0.00,,,0.00,meteohub,2013-01-12 18:07:00,
2013-01-12 13:12:00,79.3,68.7,30.07,ESE,103,7.0,15.0,70,0.00,,,0.00,meteohub,2013-01-12 18:12:00,
2013-01-12 13:17:00,79.5,68.5,30.07,SSE,161,4.0,15.0,69,0.00,,,0.00,meteohub,2013-01-12 18:17:00,
2013-01-12 13:22:00,79.5,68.0,30.07,East,80,10.0,15.0,68,0.00,,,0.00,meteohub,2013-01-12 18:22:00,
2013-01-12 13:27:00,79.9,68.4,30.06,ENE,62,5.0,11.0,68,0.00,,,0.00,meteohub,2013-01-12 18:27:00,
2013-01-12 13:32:00,80.1,68.2,30.06,SSE,157,3.0,14.0,67,0.00,,,0.00,meteohub,2013-01-12 18:32:00,
2013-01-12 13:37:00,79.7,67.3,30.06,ENE,57,1.0,14.0,66,0.00,,,0.00,meteohub,2013-01-12 18:37:00,
2013-01-12 13:42:00,79.5,67.6,30.06,SE,142,2.0,14.0,67,0.00,,,0.00,meteohub,2013-01-12 18:42:00,
2013-01-12 13:47:00,79.9,67.5,30.06,East,82,6.0,14.0,66,0.00,,,0.00,meteohub,2013-01-12 18:47:00,
2013-01-12 13:52:00,80.4,67.6,30.06,SSE,155,9.0,14.0,65,0.00,,,0.00,meteohub,2013-01-12 18:52:00,
2013-01-12 13:57:00,80.2,67.5,30.06,ESE,107,9.0,11.0,65,0.00,,,0.00,meteohub,2013-01-12 18:57:00,
2013-01-12 14:02:00,80.1,67.6,30.06,SW,224,3.0,16.0,66,0.00,,,0.00,meteohub,2013-01-12 19:02:00,
2013-01-12 14:07:00,80.2,67.8,30.06,SE,134,0.0,16.0,66,0.00,,,0.00,meteohub,2013-01-12 19:07:00,
2013-01-12 14:12:00,80.8,67.5,30.06,SE,139,8.0,16.0,64,0.00,,,0.00,meteohub,2013-01-12 19:12:00,
2013-01-12 14:17:00,80.6,67.3,30.05,ESE,114,9.0,11.0,64,0.00,,,0.00,meteohub,2013-01-12 19:17:00,
2013-01-12 14:22:00,80.1,66.7,30.05,ESE,115,5.0,14.0,64,0.00,,,0.00,meteohub,2013-01-12 19:22:00,
2013-01-12 14:27:00,80.8,67.5,30.05,ESE,116,8.0,14.0,64,0.00,,,0.00,meteohub,2013-01-12 19:27:00,
2013-01-12 14:32:00,80.6,66.9,30.06,SE,146,12.0,14.0,63,0.00,,,0.00,meteohub,2013-01-12 19:32:00,
2013-01-12 14:37:00,80.4,67.1,30.05,SE,132,4.0,13.0,64,0.00,,,0.00,meteohub,2013-01-12 19:37:00,
2013-01-12 14:42:00,80.2,66.9,30.05,SE,144,1.0,13.0,64,0.00,,,0.00,meteohub,2013-01-12 19:42:00,
2013-01-12 14:47:00,80.6,67.3,30.05,SE,144,2.0,13.0,64,0.00,,,0.00,meteohub,2013-01-12 19:47:00,
2013-01-12 14:52:00,80.8,66.9,30.05,SE,126,2.0,12.0,63,0.00,,,0.00,meteohub,2013-01-12 19:52:00,
2013-01-12 14:57:00,80.8,66.6,30.05,ESE,116,9.0,11.0,62,0.00,,,0.00,meteohub,2013-01-12 19:57:00,
2013-01-12 15:02:00,80.6,66.4,30.05,East,86,5.0,11.0,62,0.00,,,0.00,meteohub,2013-01-12 20:02:00,
2013-01-12 15:12:00,80.6,66.4,30.05,ESE,115,4.0,10.0,62,0.00,,,0.00,meteohub,2013-01-12 20:12:00,
2013-01-12 15:17:00,80.6,65.8,30.05,ESE,108,3.0,11.0,61,0.00,,,0.00,meteohub,2013-01-12 20:17:00,
2013-01-12 15:27:00,81.1,66.4,30.05,South,177,2.0,11.0,61,0.00,,,0.00,meteohub,2013-01-12 20:27:00,
2013-01-12 15:32:00,81.1,66.4,30.06,SE,134,5.0,10.0,61,0.00,,,0.00,meteohub,2013-01-12 20:32:00,
2013-01-12 15:37:00,80.8,66.0,30.06,SE,146,6.0,10.0,61,0.00,,,0.00,meteohub,2013-01-12 20:37:00,
2013-01-12 15:42:00,80.8,66.0,30.06,SSE,155,4.0,9.0,61,0.00,,,0.00,meteohub,2013-01-12 20:42:00,
2013-01-12 15:47:00,81.1,66.0,30.06,SSE,163,2.0,9.0,60,0.00,,,0.00,meteohub,2013-01-12 20:47:00,
2013-01-12 15:52:00,81.7,66.4,30.06,SE,134,2.0,9.0,60,0.00,,,0.00,meteohub,2013-01-12 20:52:00,
2013-01-12 15:57:00,81.9,66.2,30.06,ESE,106,2.0,9.0,59,0.00,,,0.00,meteohub,2013-01-12 20:57:00,
2013-01-12 16:02:00,81.7,66.4,30.06,ESE,119,4.0,7.0,60,0.00,,,0.00,meteohub,2013-01-12 21:02:00,
2013-01-12 16:07:00,81.3,65.7,30.06,ESE,115,3.0,7.0,59,0.00,,,0.00,meteohub,2013-01-12 21:07:00,
2013-01-12 16:12:00,81.0,65.8,30.06,SSE,158,5.0,8.0,60,0.00,,,0.00,meteohub,2013-01-12 21:12:00,
2013-01-12 16:17:00,81.0,65.8,30.06,SSE,147,5.0,8.0,60,0.00,,,0.00,meteohub,2013-01-12 21:17:00,
2013-01-12 16:22:00,81.1,65.5,30.06,South,174,4.0,8.0,59,0.00,,,0.00,meteohub,2013-01-12 21:22:00,
2013-01-12 16:27:00,81.1,66.4,30.06,SSW,207,3.0,8.0,61,0.00,,,0.00,meteohub,2013-01-12 21:27:00,
2013-01-12 16:32:00,80.1,68.5,30.06,West,259,6.0,8.0,68,0.00,,,0.00,meteohub,2013-01-12 21:32:00,
2013-01-12 16:37:00,79.2,68.9,30.06,SW,236,2.0,8.0,71,0.00,,,0.00,meteohub,2013-01-12 21:37:00,
2013-01-12 16:42:00,78.4,68.7,30.06,WSW,252,5.0,8.0,72,0.00,,,0.00,meteohub,2013-01-12 21:42:00,
2013-01-12 16:47:00,77.5,68.5,30.07,WSW,239,10.0,10.0,74,0.00,,,0.00,meteohub,2013-01-12 21:47:00,
2013-01-12 16:52:00,76.8,68.7,30.07,WSW,257,8.0,10.0,76,0.00,,,0.00,meteohub,2013-01-12 21:52:00,
2013-01-12 16:57:00,76.5,68.7,30.07,WSW,248,7.0,10.0,77,0.00,,,0.00,meteohub,2013-01-12 21:57:00,
2013-01-12 17:02:00,76.1,68.4,30.07,WSW,247,8.0,10.0,77,0.00,,,0.00,meteohub,2013-01-12 22:02:00,
2013-01-12 17:07:00,75.7,68.4,30.06,WSW,240,6.0,10.0,78,0.00,,,0.00,meteohub,2013-01-12 22:07:00,
2013-01-12 17:12:00,75.6,68.2,30.06,WSW,254,6.0,9.0,78,0.00,,,0.00,meteohub,2013-01-12 22:12:00,
2013-01-12 17:17:00,75.6,68.5,30.07,West,261,2.0,9.0,79,0.00,,,0.00,meteohub,2013-01-12 22:17:00,
2013-01-12 17:22:00,75.4,68.4,30.07,WSW,258,5.0,8.0,79,0.00,,,0.00,meteohub,2013-01-12 22:22:00,
2013-01-12 17:27:00,75.2,68.5,30.07,West,270,2.0,8.0,80,0.00,,,0.00,meteohub,2013-01-12 22:27:00,
2013-01-12 17:32:00,74.8,68.2,30.07,WNW,286,1.0,8.0,80,0.00,,,0.00,meteohub,2013-01-12 22:32:00,
2013-01-12 17:37:00,74.7,68.4,30.07,WNW,285,3.0,8.0,81,0.00,,,0.00,meteohub,2013-01-12 22:37:00,
2013-01-12 17:47:00,73.9,68.2,30.07,WNW,288,3.0,6.0,82,0.00,,,0.00,meteohub,2013-01-12 22:47:00,
2013-01-12 17:52:00,73.8,68.0,30.08,West,281,3.0,6.0,82,0.00,,,0.00,meteohub,2013-01-12 22:52:00,
2013-01-12 17:57:00,73.2,67.8,30.08,West,281,4.0,6.0,83,0.00,,,0.00,meteohub,2013-01-12 22:57:00,
2013-01-12 18:02:00,73.0,68.0,30.08,West,281,3.0,6.0,84,0.00,,,0.00,meteohub,2013-01-12 23:02:00,
2013-01-12 18:07:00,72.7,67.6,30.07,West,281,2.0,5.0,84,0.00,,,0.00,meteohub,2013-01-12 23:07:00,
2013-01-12 18:17:00,72.1,67.6,30.08,WNW,294,3.0,6.0,86,0.00,,,0.00,meteohub,2013-01-12 23:17:00,
2013-01-12 18:22:00,72.0,67.5,30.08,WNW,294,1.0,6.0,86,0.00,,,0.00,meteohub,2013-01-12 23:22:00,
2013-01-12 18:27:00,71.8,67.6,30.08,WNW,295,2.0,6.0,87,0.00,,,0.00,meteohub,2013-01-12 23:27:00,
2013-01-12 18:32:00,71.6,67.5,30.08,WNW,295,1.0,5.0,87,0.00,,,0.00,meteohub,2013-01-12 23:32:00,
2013-01-12 18:37:00,71.6,67.5,30.08,WNW,295,0.0,5.0,87,0.00,,,0.00,meteohub,2013-01-12 23:37:00,
2013-01-12 18:42:00,71.4,67.3,30.08,WNW,295,0.0,5.0,87,0.00,,,0.00,meteohub,2013-01-12 23:42:00,
2013-01-12 18:47:00,71.4,67.3,30.08,WNW,298,4.0,4.0,87,0.00,,,0.00,meteohub,2013-01-12 23:47:00,
2013-01-12 18:52:00,71.2,67.5,30.08,WNW,300,1.0,4.0,88,0.00,,,0.00,meteohub,2013-01-12 23:52:00,
2013-01-12 18:57:00,71.2,67.5,30.08,WNW,300,0.0,4.0,88,0.00,,,0.00,meteohub,2013-01-12 23:57:00,
2013-01-12 19:02:00,71.1,67.3,30.08,WNW,300,1.0,4.0,88,0.00,,,0.00,meteohub,2013-01-13 00:02:00,
2013-01-12 19:07:00,70.9,67.1,30.08,WNW,300,2.0,3.0,88,0.00,,,0.00,meteohub,2013-01-13 00:07:00,
2013-01-12 19:12:00,70.9,67.1,30.08,WNW,300,0.0,3.0,88,0.00,,,0.00,meteohub,2013-01-13 00:12:00,
2013-01-12 19:17:00,70.7,66.9,30.08,WNW,300,0.0,3.0,88,0.00,,,0.00,meteohub,2013-01-13 00:17:00,
2013-01-12 19:27:00,70.5,67.1,30.08,WNW,300,0.0,1.0,89,0.00,,,0.00,meteohub,2013-01-13 00:27:00,
2013-01-12 19:32:00,70.5,67.1,30.08,WNW,300,0.0,1.0,89,0.00,,,0.00,meteohub,2013-01-13 00:32:00,
2013-01-12 19:37:00,70.3,66.9,30.08,WNW,300,0.0,1.0,89,0.00,,,0.00,meteohub,2013-01-13 00:37:00,
2013-01-12 19:42:00,70.3,66.9,30.08,WNW,300,0.0,1.0,89,0.00,,,0.00,meteohub,2013-01-13 00:42:00,
2013-01-12 19:52:00,70.2,66.7,30.07,WNW,300,0.0,1.0,89,0.00,,,0.00,meteohub,2013-01-13 00:52:00,
2013-01-12 19:57:00,70.0,66.9,30.07,WNW,300,0.0,1.0,90,0.00,,,0.00,meteohub,2013-01-13 00:57:00,
2013-01-12 20:02:00,70.0,66.9,30.07,WNW,300,0.0,1.0,90,0.00,,,0.00,meteohub,2013-01-13 01:02:00,
2013-01-12 20:07:00,70.0,66.9,30.07,WNW,300,0.0,1.0,90,0.00,,,0.00,meteohub,2013-01-13 01:07:00,
2013-01-12 20:12:00,69.8,66.7,30.06,WNW,300,0.0,1.0,90,0.00,,,0.00,meteohub,2013-01-13 01:12:00,
2013-01-12 20:17:00,69.8,67.1,30.06,WNW,300,1.0,1.0,91,0.00,,,0.00,meteohub,2013-01-13 01:17:00,
2013-01-12 20:22:00,69.6,66.9,30.06,WNW,300,0.0,1.0,91,0.00,,,0.00,meteohub,2013-01-13 01:22:00,
2013-01-12 20:27:00,69.6,66.9,30.06,WNW,300,0.0,1.0,91,0.00,,,0.00,meteohub,2013-01-13 01:27:00,
2013-01-12 20:37:00,69.3,66.6,30.06,WNW,300,0.0,1.0,91,0.00,,,0.00,meteohub,2013-01-13 01:37:00,
2013-01-12 20:42:00,69.3,66.6,30.06,WNW,300,0.0,1.0,91,0.00,,,0.00,meteohub,2013-01-13 01:42:00,
2013-01-12 20:52:00,69.3,66.9,30.06,WNW,300,0.0,1.0,92,0.00,,,0.00,meteohub,2013-01-13 01:52:00,
2013-01-12 21:02:00,69.3,66.9,30.06,WNW,300,0.0,2.0,92,0.00,,,0.00,meteohub,2013-01-13 02:02:00,
2013-01-12 21:07:00,69.3,66.9,30.06,WNW,300,0.0,2.0,92,0.00,,,0.00,meteohub,2013-01-13 02:07:00,
2013-01-12 21:12:00,69.3,66.9,30.06,WNW,300,0.0,2.0,92,0.00,,,0.00,meteohub,2013-01-13 02:12:00,
2013-01-12 21:17:00,69.1,66.7,30.06,WNW,300,0.0,1.0,92,0.00,,,0.00,meteohub,2013-01-13 02:17:00,
2013-01-12 21:22:00,69.1,66.7,30.06,WNW,300,1.0,1.0,92,0.00,,,0.00,meteohub,2013-01-13 02:22:00,
2013-01-12 21:27:00,69.1,66.7,30.06,WNW,300,0.0,1.0,92,0.00,,,0.00,meteohub,2013-01-13 02:27:00,
2013-01-12 21:37:00,69.1,66.7,30.06,WNW,300,0.0,1.0,92,0.00,,,0.00,meteohub,2013-01-13 02:37:00,
2013-01-12 21:47:00,69.1,66.7,30.06,WNW,300,0.0,0.0,92,0.00,,,0.00,meteohub,2013-01-13 02:47:00,
2013-01-12 21:57:00,69.1,66.7,30.06,WNW,300,0.0,0.0,92,0.00,,,0.00,meteohub,2013-01-13 02:57:00,
2013-01-12 22:02:00,69.1,66.7,30.06,WNW,300,0.0,0.0,92,0.00,,,0.00,meteohub,2013-01-13 03:02:00,
2013-01-12 22:07:00,69.1,66.7,30.06,WNW,300,0.0,0.0,92,0.00,,,0.00,meteohub,2013-01-13 03:07:00,
2013-01-12 22:12:00,69.1,66.7,30.06,WNW,300,0.0,1.0,92,0.00,,,0.00,meteohub,2013-01-13 03:12:00,
2013-01-12 22:17:00,69.1,66.7,30.06,WNW,300,0.0,1.0,92,0.00,,,0.00,meteohub,2013-01-13 03:17:00,
2013-01-12 22:22:00,69.1,66.9,30.06,WNW,300,0.0,1.0,93,0.00,,,0.00,meteohub,2013-01-13 03:22:00,
2013-01-12 22:27:00,68.9,66.6,30.06,WNW,300,0.0,1.0,92,0.00,,,0.00,meteohub,2013-01-13 03:27:00,
2013-01-12 22:32:00,68.7,66.6,30.07,WNW,300,0.0,1.0,93,0.00,,,0.00,meteohub,2013-01-13 03:32:00,
2013-01-12 22:42:00,68.5,66.4,30.06,NW,317,0.0,2.0,93,0.00,,,0.00,meteohub,2013-01-13 03:42:00,
2013-01-12 22:47:00,68.7,66.6,30.06,NNW,340,2.0,3.0,93,0.00,,,0.00,meteohub,2013-01-13 03:47:00,
2013-01-12 22:52:00,68.9,66.7,30.06,East,99,2.0,4.0,93,0.00,,,0.00,meteohub,2013-01-13 03:52:00,
2013-01-12 22:57:00,69.1,66.7,30.06,East,97,3.0,6.0,92,0.00,,,0.00,meteohub,2013-01-13 03:57:00,
2013-01-12 23:02:00,69.4,67.1,30.06,ESE,107,4.0,6.0,92,0.00,,,0.00,meteohub,2013-01-13 04:02:00,
2013-01-12 23:07:00,69.6,66.9,30.06,SE,128,6.0,6.0,91,0.00,,,0.00,meteohub,2013-01-13 04:07:00,
2013-01-12 23:12:00,70.0,66.9,30.06,SE,134,4.0,6.0,90,0.00,,,0.00,meteohub,2013-01-13 04:12:00,
2013-01-12 23:17:00,70.3,66.6,30.05,SE,144,4.0,10.0,88,0.00,,,0.00,meteohub,2013-01-13 04:17:00,
2013-01-12 23:22:00,70.9,66.7,30.06,East,98,6.0,14.0,87,0.00,,,0.00,meteohub,2013-01-13 04:22:00,
2013-01-12 23:27:00,70.9,66.6,30.06,SE,131,8.0,14.0,86,0.00,,,0.00,meteohub,2013-01-13 04:27:00,
2013-01-12 23:32:00,71.1,66.7,30.06,SE,132,4.0,14.0,86,0.00,,,0.00,meteohub,2013-01-13 04:32:00,
2013-01-12 23:37:00,71.1,66.7,30.06,ESE,103,4.0,12.0,86,0.00,,,0.00,meteohub,2013-01-13 04:37:00,
2013-01-12 23:42:00,71.1,66.4,30.06,ESE,105,7.0,11.0,85,0.00,,,0.00,meteohub,2013-01-13 04:42:00,
2013-01-12 23:47:00,71.1,66.4,30.06,ESE,117,4.0,11.0,85,0.00,,,0.00,meteohub,2013-01-13 04:47:00,
2013-01-12 23:52:00,70.9,66.2,30.06,SE,144,4.0,9.0,85,0.00,,,0.00,meteohub,2013-01-13 04:52:00,
2013-01-12 23:57:00,70.9,66.2,30.06,SE,132,3.0,9.0,85,0.00,,,0.00,meteohub,2013-01-13 04:57:00,